[[{"header":{"parameterUnit":"m.s-1","parameterCategory":1,"la1":30.2991,"la2":30.254,"lo1":-89.0895,"lo2":-89.0444,"dy":0.0017,"dx":0.0017,"nx":28,"ny":28,"refTime":"2025-03-27T21:00:00:Z","depth":0,"parameterNumber":2,"parameterNumberName":"U-component_of_WINDS"},"data":[0,0,0,0,0,0,0,0,0,0,0,0,0,0,0,0,0,0,0,0,0,0,0,0,0,0,0,0,0,0,0,0,0,0,0,0,0,0,0,0,0,0,0,0,0,0,0,0,0,0,0,0,0,0,0,0,0,0,-3.7131,-3.7131,0,-3.7207,-3.7208,-3.7208,-3.7163,-3.7161,-3.7159,-3.7157,-3.7237,-3.7241,-3.7245,0,0,0,0,0,0,0,0,0,0,0,0,0,-3.695,-3.6953,-3.713,-3.7131,-3.7132,-3.7207,-3.7208,-3.7209,-3.7164,-3.7161,-3.7158,-3.7156,-3.7235,-3.724,-3.7245,0,0,0,0,0,0,0,0,0,0,0,0,0,-3.7027,-3.6954,-3.713,-3.7119,-3.7119,-3.7206,-3.7208,-3.7209,-3.7164,-3.7161,-3.7158,-3.7155,-3.7234,-3.724,-3.7246,-3.735,0,0,-3.7265,-3.7267,0,0,0,0,0,0,0,0,-3.7023,-3.7034,-3.712,-3.712,-3.712,-3.7172,-3.7173,-3.7256,-3.7165,-3.7147,-3.7157,-3.7153,-3.7218,-3.7225,-3.7247,-3.7353,-3.7357,-3.7265,-3.7269,-3.7272,-3.7273,0,0,0,0,0,0,0,-3.7018,-3.7031,-3.7161,-3.7121,-3.7121,-3.7111,-3.7119,-3.7189,-3.72,-3.7148,-3.7145,-3.7155,-3.7217,-3.7241,-3.7248,-3.7358,-3.7265,-3.7271,-3.7274,-3.7277,-3.7556,-3.756,0,0,0,0,0,0,-3.7013,-3.7026,-3.7158,-3.7163,-3.7062,-3.7117,-3.7125,-3.7159,-3.7199,-3.7202,-3.7157,-3.7152,-3.7232,-3.7241,-3.7251,-3.7376,-3.7272,-3.7278,-3.7281,-3.7553,-3.7557,-3.7561,0,0,0,0,0,0,-3.7009,-3.7025,-3.7155,-3.7094,-3.711,-3.7124,-3.7161,-3.7162,-3.7185,-3.7206,-3.7208,-3.7179,-3.723,-3.7242,-3.7326,-3.7378,-3.728,-3.7286,-3.7548,-3.7554,-3.7559,-3.7627,0,0,0,0,0,0,-3.7004,-3.7024,-3.7062,-3.7095,-3.7113,-3.7228,-3.7165,-3.7166,-3.7196,-3.719,-3.7227,-3.723,-3.7228,-3.7317,-3.7332,-3.7385,-3.7291,-3.7544,-3.7551,-3.7558,-3.762,-3.7634,-3.7646,0,0,0,0,0,-3.6998,-3.7078,-3.7064,-3.708,-3.7161,-3.7231,-3.7241,-3.7237,-3.72,-3.724,-3.7254,-3.7228,-3.7371,-3.7326,-3.7342,-3.7398,-3.754,-3.7549,-3.7557,-3.7614,-3.7631,-3.7645,0,0,0,0,0,0,-3.705,-3.7082,-3.7067,-3.716,-3.7193,-3.7223,-3.7272,-3.7255,-3.7299,-3.7292,-3.7286,-3.7294,-3.7382,-3.7399,-3.7348,-3.7502,-3.745,-3.7462,-3.7487,-3.7504,-3.7517,-3.751,-3.7296,0,0,0,0,0,-3.7073,-3.7126,-3.7151,-3.7231,-3.7248,-3.7258,-3.7288,-3.7282,-3.7316,-3.733,-3.735,-3.7385,-3.7437,-3.7472,-3.7521,-3.7623,-3.7631,-3.767,-3.7683,-3.7693,-3.7703,-3.776,-3.7778,-3.7589,-3.7588,-3.7588,0,0,-3.712,-3.7144,-3.7177,-3.7242,-3.7267,-3.7323,-3.7269,-3.7331,-3.7373,-3.7339,-3.7419,-3.7436,-3.7475,-3.7568,-3.7611,-3.7585,-3.7758,-3.7704,-3.7712,-3.7716,-3.7771,-3.7789,-3.7805,-3.7594,-3.7593,-3.7592,0,0,-3.7233,-3.7256,-3.7326,-3.7353,-3.7391,-3.7398,-3.7415,-3.7448,-3.7458,-3.7539,-3.7515,-3.7567,-3.7657,-3.7686,-3.7712,-3.7842,-3.7821,-3.7858,-3.7925,-3.7981,-3.7996,-3.8009,-3.8056,-3.8072,-3.7869,-3.7869,-3.7869,0,-3.7286,-3.7369,-3.7364,-3.7428,-3.7457,-3.7431,-3.7503,-3.7529,-3.7582,-3.7604,-3.7575,-3.769,-3.7714,-3.7815,-3.7847,-3.7869,-3.7889,-3.7853,-3.7994,-3.8007,-3.802,-3.8064,-3.8081,-3.7873,-3.7873,-3.7872,-3.7872,0,-3.7432,-3.7491,-3.7543,-3.7595,-3.7631,-3.7698,-3.7705,-3.7743,-3.7736,-3.7746,-3.783,-3.7859,-3.7914,-3.7938,-3.7931,-3.804,-3.8023,-3.7994,-3.7941,-3.8042,-3.8084,-3.8101,-3.7879,-3.7878,-3.7876,-3.7875,0,0,-3.7577,-3.7629,-3.7648,-3.7672,-3.7715,-3.7761,-3.7829,-3.7883,-3.7916,-3.7955,-3.8012,-3.8091,-3.8066,-3.8096,-3.8093,-3.8142,-3.8244,-3.8108,-3.8109,-3.8132,-3.8366,-3.8387,-3.8406,-3.8232,-3.8235,-3.8238,-3.8363,0,-3.7693,-3.781,-3.7809,-3.7918,-3.7972,-3.795,-3.801,-3.8043,-3.8056,-3.8106,-3.812,-3.8176,-3.8138,-3.8157,-3.8205,-3.8221,-3.8291,-3.8213,-3.8285,-3.8288,-3.8275,-3.8428,-3.8449,-3.8565,-3.8379,-3.8382,-3.8384,0,-3.7842,-3.7887,-3.8001,-3.8038,-3.8061,-3.8114,-3.8166,-3.8213,-3.8252,-3.8258,-3.8294,-3.8284,-3.8355,-3.8302,-3.8401,-3.8347,-3.8378,-3.8391,-3.8396,-3.8401,-3.8341,-3.8437,-3.8602,-3.862,-3.841,-3.8408,-3.8406,0,-3.7937,-3.8025,-3.8105,-3.8127,-3.8173,-3.8211,-3.8232,-3.8268,-3.8301,-3.8347,-3.837,-3.8424,-3.8453,-3.8496,-3.8502,-3.8462,-3.8601,-3.8548,-3.8609,-3.8609,-3.8637,-3.8635,-3.8809,-3.8659,-3.8659,-3.8658,-3.8658,0,-3.8065,-3.8135,-3.8148,-3.8197,-3.8277,-3.8277,-3.8356,-3.8374,-3.8407,-3.8461,-3.8446,-3.8497,-3.8502,-3.8556,-3.8561,-3.8643,-3.8656,-3.8664,-3.8664,-3.8664,-3.8663,-3.8683,-3.8674,-3.8663,-3.8662,-3.8661,-3.866,0,-3.8182,-3.8193,-3.8279,-3.8317,-3.8328,-3.8385,-3.8417,-3.8465,-3.8478,-3.8546,-3.8562,-3.8582,-3.8644,-3.8655,-3.8728,-3.8733,-3.883,-3.8822,-3.8816,-3.8815,-3.8875,-3.8869,-3.9067,-3.9093,-3.8926,-3.8928,-3.8929,0,-3.8262,-3.8316,-3.836,-3.8395,-3.8418,-3.8474,-3.8509,-3.8513,-3.855,-3.8601,-3.8644,-3.8704,-3.8753,-3.8854,-3.8875,-3.8932,-3.8926,-3.8992,-3.8934,-3.8933,-3.8926,-3.8923,-3.8929,-3.9002,-3.9003,-3.9005,-3.9006,0,-3.8403,-3.8407,-3.8458,-3.8512,-3.8554,-3.8597,-3.8637,-3.8667,-3.8677,-3.872,-3.8783,-3.8821,-3.8897,-3.8958,-3.9015,-3.9039,-3.9025,-3.9025,-3.9042,-3.9041,-3.9035,-3.904,-3.8845,-3.9019,-3.9018,-3.9017,-3.9016,-3.9016,-3.8504,-3.8552,-3.859,-3.8648,-3.868,-3.8719,-3.8766,-3.8786,-3.8838,-3.89,-3.89,-3.897,-3.9012,-3.9087,-3.9114,-3.917,-3.9149,-3.9174,-3.918,-3.9186,-3.9191,-3.9028,-3.9181,-3.9181,-3.918,-3.918,-3.918,0,-3.8644,-3.8669,-3.8722,-3.878,-3.8826,-3.881,-3.8855,-3.8895,-3.8956,-3.8996,-3.9045,-3.9119,-3.918,-3.9208,-3.9268,-3.9307,-3.9303,-3.9323,-3.9319,-3.9325,-3.9206,-3.9186,-3.9326,-3.9326,-3.9326,-3.9326,-3.9326,-3.9326,-3.8722,-3.8802,-3.8812,-3.8908,-3.8933,-3.9001,-3.9029,-3.9065,-3.9097,-3.9181,-3.9231,-3.9249,-3.9285,-3.9348,-3.9403,-3.941,-3.9433,-3.9456,-3.946,-3.9348,-3.9333,-3.9319,-3.9299,-3.9461,-3.9461,-3.9574,-3.9575,-3.9576]},{"header":{"parameterUnit":"m.s-1","parameterCategory":1,"la1":30.2991,"la2":30.254,"lo1":-89.0895,"lo2":-89.0444,"dy":0.0017,"dx":0.0017,"nx":28,"ny":28,"refTime":"2025-03-27T21:00:00:Z","depth":0,"parameterNumber":3,"parameterNumberName":"V-component_of_WINDS"},"data":[0,0,0,0,0,0,0,0,0,0,0,0,0,0,0,0,0,0,0,0,0,0,0,0,0,0,0,0,0,0,0,0,0,0,0,0,0,0,0,0,0,0,0,0,0,0,0,0,0,0,0,0,0,0,0,0,0,0,1.1012,1.1013,0,1.1062,1.1062,1.1063,1.1107,1.1108,1.1108,1.1109,1.1156,1.1157,1.1158,0,0,0,0,0,0,0,0,0,0,0,0,0,1.0955,1.0956,1.1012,1.1013,1.1013,1.1062,1.1062,1.1063,1.1107,1.1108,1.1109,1.1109,1.1156,1.1157,1.1158,0,0,0,0,0,0,0,0,0,0,0,0,0,1.099,1.0956,1.1012,1.1041,1.1045,1.1061,1.1062,1.1063,1.1107,1.1108,1.1109,1.1109,1.1156,1.1157,1.1158,1.1149,0,0,1.1162,1.1162,0,0,0,0,0,0,0,0,1.0988,1.0992,1.1036,1.1039,1.1043,1.1079,1.106,1.1092,1.1107,1.1083,1.1109,1.111,1.113,1.1133,1.1141,1.1151,1.1153,1.1162,1.1162,1.1163,1.1163,0,0,0,0,0,0,0,1.0985,1.099,1.1032,1.1037,1.1041,1.1052,1.1058,1.1066,1.1101,1.1085,1.1089,1.1094,1.1132,1.1139,1.1142,1.1154,1.1162,1.1163,1.1163,1.1164,1.1163,1.1162,0,0,0,0,0,0,1.0979,1.0988,1.103,1.1033,1.1017,1.1052,1.1059,1.1067,1.1101,1.1108,1.1093,1.1096,1.1137,1.1141,1.1144,1.1138,1.1163,1.1164,1.1165,1.1164,1.1163,1.1162,0,0,0,0,0,0,1.0977,1.0982,1.1028,1.1011,1.1018,1.1052,1.1061,1.1067,1.1075,1.1108,1.1114,1.1095,1.1138,1.1142,1.1149,1.114,1.1165,1.1166,1.1165,1.1164,1.1163,1.1124,0,0,0,0,0,0,1.0976,1.0981,1.0978,1.1011,1.1019,1.1032,1.106,1.1068,1.1077,1.1081,1.111,1.1116,1.1139,1.1147,1.115,1.1142,1.1167,1.1166,1.1164,1.1163,1.1126,1.1122,1.1118,0,0,0,0,0,1.0973,1.0964,1.0978,1.0983,1.1016,1.1031,1.1036,1.1063,1.1076,1.1074,1.1095,1.1115,1.114,1.1147,1.1151,1.1143,1.1166,1.1165,1.1163,1.1128,1.1122,1.1118,0,0,0,0,0,0,1.0927,1.0969,1.0984,1.0985,1.1005,1.1039,1.1036,1.1056,1.1071,1.1074,1.1106,1.1112,1.1115,1.113,1.1136,1.1138,1.1156,1.1155,1.1128,1.1123,1.1119,1.1116,1.1167,0,0,0,0,0,1.0917,1.0927,1.0962,1.096,1.0969,1.1001,1.1008,1.1028,1.1049,1.1057,1.1079,1.1097,1.111,1.1117,1.1131,1.1129,1.1137,1.1126,1.1121,1.1118,1.1117,1.1119,1.1116,1.1157,1.1157,1.1157,0,0,1.0896,1.092,1.0924,1.0951,1.0969,1.0978,1.1007,1.1015,1.1023,1.1058,1.1066,1.1083,1.1106,1.1109,1.1111,1.1121,1.1107,1.1116,1.1113,1.1114,1.1117,1.1113,1.111,1.1156,1.1156,1.1156,0,0,1.0864,1.0882,1.0884,1.0901,1.0928,1.095,1.095,1.0982,1.0995,1.1004,1.1031,1.1041,1.1061,1.1077,1.1088,1.1065,1.1085,1.1069,1.1047,1.1049,1.1046,1.1043,1.1037,1.1034,1.1067,1.1067,1.1067,0,1.0834,1.085,1.0881,1.0889,1.0901,1.0935,1.0938,1.0953,1.0981,1.0989,1.1,1.1029,1.1046,1.1055,1.105,1.1057,1.1059,1.1065,1.1044,1.1042,1.104,1.1034,1.1031,1.1065,1.1065,1.1066,1.1066,0,1.0814,1.0825,1.0822,1.0852,1.0864,1.0868,1.09,1.0908,1.0928,1.0948,1.0958,1.0982,1.1001,1.1005,1.1022,1.1016,1.1022,1.1038,1.1057,1.1033,1.1028,1.1026,1.1062,1.1063,1.1064,1.1064,0,0,1.0752,1.0801,1.0799,1.0815,1.0848,1.0857,1.0864,1.0885,1.0892,1.0911,1.0919,1.0937,1.0953,1.0965,1.0986,1.0987,1.0971,1.1004,1.1005,1.0998,1.0967,1.0956,1.0953,1.0984,1.0984,1.0983,1.0966,0,1.0725,1.0741,1.0771,1.0776,1.0788,1.0822,1.0829,1.085,1.087,1.0883,1.0905,1.0918,1.0937,1.0946,1.0949,1.0972,1.0965,1.0973,1.0992,1.0992,1.0985,1.095,1.0937,1.0919,1.0964,1.0964,1.0964,0,1.0696,1.0716,1.0724,1.076,1.0765,1.0771,1.0794,1.0805,1.0831,1.0846,1.0861,1.0885,1.0895,1.0912,1.0927,1.0932,1.0942,1.0954,1.0954,1.0957,1.0976,1.0953,1.0914,1.0912,1.0961,1.0961,1.0961,0,1.0652,1.0681,1.069,1.0701,1.0742,1.0746,1.0763,1.079,1.0801,1.0821,1.083,1.085,1.0861,1.0876,1.0905,1.0915,1.0918,1.0937,1.0931,1.093,1.0929,1.0929,1.0892,1.0934,1.0934,1.0934,1.0934,0,1.062,1.0624,1.0671,1.0677,1.0683,1.0717,1.0722,1.0742,1.0766,1.0776,1.0807,1.0816,1.0853,1.0866,1.0889,1.0899,1.0903,1.0916,1.0922,1.0914,1.0912,1.092,1.0923,1.0933,1.0933,1.0934,1.0934,0,1.0572,1.0603,1.0616,1.0655,1.0665,1.0668,1.0701,1.0708,1.0731,1.0744,1.0749,1.0785,1.0803,1.0834,1.0859,1.0875,1.0881,1.0891,1.0873,1.0877,1.0869,1.087,1.0837,1.0835,1.0877,1.0876,1.0876,0,1.0549,1.0554,1.0594,1.0604,1.0621,1.0636,1.0649,1.0684,1.0696,1.0727,1.0731,1.0752,1.077,1.0797,1.0826,1.0846,1.0857,1.0845,1.086,1.0853,1.0859,1.0859,1.086,1.0841,1.084,1.0839,1.0839,0,1.0507,1.0524,1.0542,1.0566,1.0581,1.0602,1.0623,1.063,1.0669,1.0682,1.0702,1.0716,1.0745,1.0765,1.0791,1.0808,1.0831,1.0834,1.0834,1.0826,1.0816,1.0823,1.0864,1.0834,1.0835,1.0835,1.0836,1.0836,1.0472,1.0479,1.0509,1.0529,1.055,1.057,1.058,1.0605,1.0623,1.065,1.0669,1.0688,1.0716,1.0753,1.0769,1.0785,1.0795,1.0794,1.0794,1.0793,1.0791,1.0813,1.0789,1.0789,1.079,1.079,1.079,0,1.0433,1.0455,1.0473,1.0504,1.052,1.0542,1.0568,1.058,1.0596,1.0621,1.064,1.0664,1.0685,1.0716,1.0739,1.0746,1.0757,1.0751,1.0751,1.0755,1.078,1.0779,1.0742,1.0742,1.0742,1.0742,1.0742,1.0742,1.0415,1.0428,1.0448,1.0472,1.0494,1.0514,1.0527,1.0547,1.0567,1.0593,1.0611,1.0632,1.066,1.0686,1.0707,1.0715,1.0723,1.0714,1.0726,1.0748,1.0753,1.0757,1.0756,1.0715,1.0715,1.07,1.07,1.07]}]]